User: anonymous   Login
Location: Unspecified
(0.0000°N, 0.0000°E)
Time: 11:08:47
(UTC+00:00)
Language:

CANX 3A (UNIBRITE) - Orbit

View from above orbital plane
View from above orbital plane
View from above satellite
View from above satellite

Ground track
Ground track

The orbit data is extracted from the following two-line orbital elements,

1 39092U 13009G   18024.08115536 -.00000012  00000-0  11328-4 0  9993
2 39092  98.5310 231.2092 0009610  13.0699 347.0734 14.34931765257155
Epoch (UTC): 24 January 2018 01:56:51
Eccentricity: 0.0009610
inclination: 98.5310°
perigee height: 768 km
apogee height: 782 km
right ascension of ascending node: 231.2092°
argument of perigee: 13.0699°
revolutions per day: 14.34931765
mean anomaly at epoch: 347.0734°
orbit number at epoch: 25715

The dashed part of the orbit path shows where the satellite is in the earth's shadow,  

DLR